THOR ABLESTAR DEB, 545

Orbit data source: Space-Track

THOR ABLESTAR DEB, 545 is space debris in LEO originally from a launch on Thu, 29 Jun 1961 UTC launched from the Air Force Eastern Test Range (AFETR). Debris objects in space refer to the collection of defunct objects orbiting the Earth. Examples of debris include non-operational satellites, rocket bodies, and fragments generated from explosions, collisions, or faulty payload assembly.

Loading next visibility...
Identifier
545, 1961-015GE
Orbit
LEO
Country
Flag of USUS
Related business
Manufacturer
Unknown
Mission
Spacecraft
Bus & Motor
Unknown
Mass
Unknown
Launch date (UTC)
1961-06-29 (64 years ago)
Launch vehicle
Unknown
Launch site
Air Force Eastern Test Range (AFETR)
Object type
Payload
Rocket body
Debris
Shape & HBR
Unknown shape, 0.1 m
Radar Cross Section
Small (<0.1 m²)

Expand to show TLE details & history
Last TLE update: 20 hours ago

TLE from 20 hours ago
0 THOR ABLESTAR DEB
1 00545U 61015GE  25339.48253911  .00000702  00000-0  78910-3 0  9999
2 00545  67.2331   4.1006 0160312 196.0234 163.5735 13.70927134203739
Epoch: 2025-12-05T11:34Z
TLE epoch observation values (Epoch: 2025-12-05T11:34:51.379Z)
Latitude
-0.00003°
Longitude
115.86251°
Altitude
1,111.889 km
Speed
7.241 km/s
True Right ascension
00h 16m 24s
True Declination
0° 00' 00"
Sunlit
Object was in daylight at epoch
Visualization orbit readout
Latitude
Unknown
Longitude
Unknown
Altitude
Unknown
Speed
Unknown
Apparent Right ascension
Unknown
Apparent Declination
Unknown
Sunlit
N/A
Visualization observer readout
Local Sidereal Time
05:33:38
Azimuth
Unknown
Elevation
Unknown
Doppler factor
Unknown
Orbital elements
Apogee altitude
1,112.798 km
Perigee altitude
876.41 km
Semi-major axis
7,372.741 km
Eccentricity
0.01603
Inclination
67.2331°
RAAN
4.1006°
Arg. of periapsis
196.0234°
True anomaly
164.08318°
Mean anomaly
163.5735°
Eccentric anomaly
163.82931°
Mean motion
3.42846 °/min
Orbital period
105 mins
BSTAR
0.0007891
Loading maneuver chart data...
Computing Atmospheric mass density...

Documentation

Showing up to 5 results
|